When you browse on this site, cookies collect data to enhance your experience and personalize the content and advertising you see.
Visit our Privacy Policy to learn more. By continuing to use the site, you agree to this use of cookies and data.
  • In Switzerland
  • List of Countries
  • For 7 days
  • Water Temperature
  • Weather Map
  • Weather Widgets
  • user-avatar
    Login

    Hourly Weather Xixi

    Today, 31 May, Sunday

    Time Temperature Precipitation Wind Pressure Humidity
    00:00 +23°C° 0 mm 1 mps 708 mmHg 91%
    01:00 +20°C° 0 mm 0 mps 708 mmHg 91%
    02:00 +20°C° 0 mm 0 mps 708 mmHg 91%
    03:00 +20°C° 0 mm 0 mps 707 mmHg 91%
    04:00 +20°C° 0 mm 0 mps 707 mmHg 91%
    05:00 +21°C° 0.2 mm 0 mps 708 mmHg 89%
    06:00 +24°C° 0.2 mm 1 mps 708 mmHg 87%
    07:00 +25°C° 0.2 mm 1 mps 708 mmHg 85%
    08:00 +25°C° 1.4 mm 1 mps 708 mmHg 87%
    09:00 +25°C° 1.4 mm 1 mps 708 mmHg 89%
    10:00 +25°C° 1.4 mm 1 mps 709 mmHg 91%
    11:00 +24°C° 1.8 mm 1 mps 708 mmHg 92%
    12:00 +23°C° 1.8 mm 1 mps 708 mmHg 93%
    13:00 +21°C° 1.8 mm 0 mps 707 mmHg 93%
    14:00 +23°C° 0.2 mm 1 mps 707 mmHg 93%
    15:00 +23°C° 0.2 mm 1 mps 707 mmHg 92%
    16:00 +24°C° 0.2 mm 1 mps 707 mmHg 91%
    17:00 +23°C° 0.1 mm 1 mps 707 mmHg 91%
    18:00 +23°C° 0.1 mm 1 mps 707 mmHg 91%
    19:00 +22°C° 0.1 mm 1 mps 707 mmHg 90%
    20:00 +22°C° 0.1 mm 1 mps 708 mmHg 92%
    21:00 +22°C° 0.1 mm 1 mps 708 mmHg 93%
    22:00 +21°C° 0.1 mm 1 mps 708 mmHg 95%
    23:00 +21°C° 0.1 mm 1 mps 708 mmHg 94%

    Tomorrow, 1 June, Monday

    Time Temperature Precipitation Wind Pressure Humidity
    00:00 +21°C° 0.1 mm 1 mps 708 mmHg 93%
    01:00 +19°C° 0.1 mm 0 mps 707 mmHg 92%
    02:00 +19°C° 0.4 mm 0 mps 707 mmHg 93%
    03:00 +18°C° 0.4 mm 0 mps 707 mmHg 93%
    04:00 +18°C° 0.4 mm 0 mps 707 mmHg 94%
    05:00 +19°C° 0.2 mm 0 mps 707 mmHg 91%
    06:00 +20°C° 0.2 mm 0 mps 708 mmHg 89%
    07:00 +22°C° 0.2 mm 0 mps 708 mmHg 87%
    08:00 +23°C° 0 mm 0 mps 708 mmHg 82%
    09:00 +25°C° 0 mm 0 mps 709 mmHg 77%
    10:00 +27°C° 0 mm 0 mps 709 mmHg 72%
    11:00 +29°C° 0.9 mm 1 mps 709 mmHg 72%
    12:00 +30°C° 0.9 mm 1 mps 708 mmHg 72%
    13:00 +30°C° 0.9 mm 1 mps 707 mmHg 73%
    14:00 +30°C° 2.2 mm 1 mps 707 mmHg 75%
    15:00 +29°C° 2.2 mm 1 mps 706 mmHg 78%
    16:00 +26°C° 2.2 mm 0 mps 705 mmHg 81%
    17:00 +27°C° 1.8 mm 1 mps 705 mmHg 85%
    18:00 +26°C° 1.8 mm 1 mps 705 mmHg 89%
    19:00 +25°C° 1.8 mm 1 mps 705 mmHg 93%
    20:00 +25°C° 1.1 mm 1 mps 706 mmHg 93%
    21:00 +24°C° 1.1 mm 1 mps 706 mmHg 94%
    22:00 +24°C° 1.1 mm 1 mps 707 mmHg 95%
    23:00 +24°C° 1 mm 1 mps 706 mmHg 95%

    Day after tomorrow, 2 June, Tuesday

    Time Temperature Precipitation Wind Pressure Humidity
    00:00 +24°C° 1 mm 1 mps 706 mmHg 96%
    01:00 +24°C° 1 mm 1 mps 705 mmHg 96%
    02:00 +24°C° 0.9 mm 1 mps 705 mmHg 96%
    03:00 +22°C° 0.9 mm 0 mps 705 mmHg 96%
    04:00 +21°C° 0.9 mm 0 mps 705 mmHg 97%
    05:00 +21°C° 1 mm 0 mps 705 mmHg 97%
    06:00 +21°C° 1 mm 0 mps 705 mmHg 97%
    07:00 +22°C° 1 mm 0 mps 705 mmHg 97%
    08:00 +24°C° 1 mm 1 mps 706 mmHg 95%
    09:00 +25°C° 1 mm 1 mps 706 mmHg 93%
    10:00 +26°C° 1 mm 1 mps 706 mmHg 92%
    11:00 +26°C° 1.3 mm 1 mps 705 mmHg 91%
    12:00 +27°C° 1.3 mm 1 mps 705 mmHg 90%
    13:00 +27°C° 1.3 mm 1 mps 705 mmHg 88%
    14:00 +26°C° 2.7 mm 1 mps 704 mmHg 90%
    15:00 +26°C° 2.7 mm 1 mps 704 mmHg 92%
    16:00 +24°C° 2.7 mm 0 mps 703 mmHg 94%
    17:00 +23°C° 2.5 mm 0 mps 704 mmHg 95%
    18:00 +23°C° 2.5 mm 0 mps 704 mmHg 97%
    19:00 +24°C° 2.5 mm 1 mps 704 mmHg 98%
    20:00 +22°C° 1.5 mm 0 mps 704 mmHg 98%
    21:00 +22°C° 1.5 mm 0 mps 704 mmHg 98%
    22:00 +22°C° 1.5 mm 0 mps 705 mmHg 98%
    23:00 +22°C° 3.4 mm 0 mps 704 mmHg 98%

    3 June, Wednesday

    Time Temperature Precipitation Wind Pressure Humidity
    00:00 +22°C° 3.4 mm 0 mps 704 mmHg 99%
    01:00 +22°C° 3.4 mm 0 mps 704 mmHg 99%
    02:00 +21°C° 2.8 mm 0 mps 704 mmHg 99%
    03:00 +21°C° 2.8 mm 0 mps 704 mmHg 98%
    04:00 +21°C° 2.8 mm 0 mps 704 mmHg 98%
    05:00 +21°C° 3.5 mm 0 mps 704 mmHg 98%
    06:00 +21°C° 3.5 mm 0 mps 704 mmHg 98%
    07:00 +21°C° 3.5 mm 0 mps 704 mmHg 99%
    08:00 +21°C° 5.4 mm 0 mps 705 mmHg 98%
    09:00 +22°C° 5.4 mm 0 mps 705 mmHg 98%
    10:00 +22°C° 5.4 mm 0 mps 705 mmHg 98%
    11:00 +22°C° 2.5 mm 0 mps 704 mmHg 98%
    12:00 +22°C° 2.5 mm 0 mps 704 mmHg 98%
    13:00 +22°C° 2.5 mm 0 mps 704 mmHg 98%
    14:00 +22°C° 0.8 mm 0 mps 704 mmHg 97%
    15:00 +22°C° 0.8 mm 0 mps 703 mmHg 97%
    16:00 +24°C° 0.8 mm 1 mps 703 mmHg 96%
    17:00 +22°C° 0.3 mm 0 mps 703 mmHg 97%
    18:00 +22°C° 0.3 mm 0 mps 703 mmHg 97%
    19:00 +21°C° 0.3 mm 0 mps 704 mmHg 98%
    20:00 +21°C° 0.5 mm 0 mps 704 mmHg 98%
    21:00 +21°C° 0.5 mm 0 mps 704 mmHg 98%
    22:00 +21°C° 0.5 mm 0 mps 704 mmHg 98%
    23:00 +21°C° 0.8 mm 0 mps 704 mmHg 98%

    4 June, Thursday

    Time Temperature Precipitation Wind Pressure Humidity
    00:00 +23°C° 0.8 mm 1 mps 704 mmHg 98%
    01:00 +23°C° 0.8 mm 1 mps 703 mmHg 98%
    02:00 +23°C° 2.2 mm 1 mps 703 mmHg 98%
    03:00 +23°C° 2.2 mm 1 mps 703 mmHg 98%
    04:00 +23°C° 2.2 mm 1 mps 703 mmHg 99%
    05:00 +23°C° 3.2 mm 1 mps 703 mmHg 98%
    06:00 +23°C° 3.2 mm 1 mps 703 mmHg 98%
    07:00 +23°C° 3.2 mm 1 mps 704 mmHg 98%
    08:00 +24°C° 2 mm 1 mps 704 mmHg 97%
    09:00 +24°C° 2 mm 1 mps 704 mmHg 96%
    10:00 +24°C° 2 mm 1 mps 704 mmHg 95%
    11:00 +25°C° 1.2 mm 1 mps 704 mmHg 94%
    12:00 +26°C° 1.2 mm 1 mps 703 mmHg 92%
    13:00 +26°C° 1.2 mm 2 mps 703 mmHg 90%
    14:00 +26°C° 1.3 mm 1 mps 703 mmHg 90%
    15:00 +26°C° 1.3 mm 1 mps 702 mmHg 90%
    16:00 +26°C° 1.3 mm 1 mps 702 mmHg 90%
    17:00 +25°C° 0.1 mm 1 mps 702 mmHg 92%
    18:00 +25°C° 0.1 mm 1 mps 702 mmHg 95%
    19:00 +24°C° 0.1 mm 1 mps 702 mmHg 97%
    20:00 +24°C° 0.1 mm 1 mps 703 mmHg 96%
    21:00 +23°C° 0.1 mm 1 mps 703 mmHg 96%
    22:00 +21°C° 0.1 mm 0 mps 703 mmHg 95%
    23:00 +23°C° 0 mm 1 mps 703 mmHg 95%

    5 June, Friday

    Time Temperature Precipitation Wind Pressure Humidity
    00:00 +23°C° 0 mm 1 mps 702 mmHg 94%
    01:00 +23°C° 0 mm 1 mps 702 mmHg 93%
    02:00 +23°C° 0 mm 1 mps 702 mmHg 93%
    03:00 +23°C° 0 mm 1 mps 702 mmHg 93%
    04:00 +23°C° 0 mm 1 mps 702 mmHg 93%
    05:00 +24°C° 0 mm 1 mps 702 mmHg 91%
    06:00 +25°C° 0 mm 1 mps 703 mmHg 89%
    07:00 +24°C° 0 mm 0 mps 703 mmHg 87%
    08:00 +27°C° 0.2 mm 1 mps 704 mmHg 81%
    09:00 +29°C° 0.2 mm 1 mps 704 mmHg 76%
    10:00 +30°C° 0.2 mm 1 mps 704 mmHg 70%
    11:00 +31°C° 1.1 mm 1 mps 704 mmHg 70%
    12:00 +31°C° 1.1 mm 1 mps 704 mmHg 70%
    13:00 +29°C° 1.1 mm 0 mps 703 mmHg 71%
    14:00 +29°C° 1.3 mm 0 mps 703 mmHg 72%
    15:00 +30°C° 1.3 mm 1 mps 702 mmHg 73%
    16:00 +30°C° 1.3 mm 1 mps 702 mmHg 74%
    17:00 +28°C° 0.1 mm 1 mps 702 mmHg 79%
    18:00 +27°C° 0.1 mm 1 mps 702 mmHg 84%
    19:00 +25°C° 0.1 mm 1 mps 702 mmHg 89%
    20:00 +25°C° 0 mm 1 mps 703 mmHg 89%
    21:00 +24°C° 0 mm 1 mps 703 mmHg 90%
    22:00 +24°C° 0 mm 1 mps 704 mmHg 90%
    23:00 +24°C° 0 mm 1 mps 704 mmHg 91%
    Show more